Voltar ao catálogo

FENGYUN 1C DEB

LostPO
NORAD 37699·DEBRIS·🇨🇳 China

Lançado May 10, 1999 de Taiyuan Satellite Launch Center

Loading…

Próximas Passagens (próximas 24 horas)

TLE

ObsoletoSource: Space-Track

Época: Sep 13, 2022, 05:03 UTC

1 37699U 99025ELQ 22256.21097403  .00001795  00000-0  12842-2 0  9993
2 37699  97.9793 242.4199 0124715  21.6530  40.6275 13.94573712652917

Acompanhe FENGYUN 1C DEB em tempo real com AllMySat

Download on the App Store